Вернуться в каталог

UNISAT 5

АктивенНаукаSSO
NORAD 39421·PAYLOAD·🇮🇹 Italy

Запущен Nov 21, 2013 с Dombarovsky

Loading…

Ближайшие Пролёты (ближайшие 24 часа)

TLE

СвежийSource: Space-Track

Эпоха: Sep 13, 2026, 21:17 UTC

1 39421U 13066F   26256.88691118  .00002364  00000-0  16722-3 0  9994
2 39421  97.7164 227.1042 0029905 147.0238 213.2861 15.05507929696011

Отслеживайте UNISAT 5 в реальном времени с AllMySat

Download on the App Store